"Pseudo-MPEC" for P125r65

Created 2025 Jan 15 8:31:04 UT using Find_Orb

Click here for an explanation of pseudo-MPECs

 
 Astrometry: 
     P125r65* C2025 01 08.59304912 51 50.073+40 45 11.17   ~18KH 21.73wXNEOCPF51
     P125r65  C2025 01 08.60419612 51 49.451+40 45 16.34   ~18KH 21.85wXNEOCPF51
     P125r65  C2025 01 08.61532312 51 48.830+40 45 21.32   ~18KH 21.96wXNEOCPF51
     P125r65 DC2025 01 13.47729 12 46 47.61 +41 23 44.1    ~1DDl       oNEOCP695
     P125r65 DC2025 01 13.49954 12 46 45.88 +41 23 55.4    ~1DDl 21.4 RoNEOCP695
     P125r65 DC2025 01 13.52180 12 46 44.17 +41 24 06.3    ~1DDl 21.5 RoNEOCP695
     P125r65 DC2025 01 14.34714 12 45 42.89 +41 30 51.8    ~1E9l 21.7 RoNEOCP695
     P125r65 DC2025 01 14.36402 12 45 41.57 +41 31 00.8    ~1E9l       oNEOCP695
     P125r65 DC2025 01 14.38091 12 45 40.25 +41 31 09.7    ~1E9l 21.5 RoNEOCP695
     P125r65 FB2025 01 15.15227012 44 39.127+41 37 33.60   ~1F8V 21.6 GWNEOCP204

Station data:
(204) Schiaparelli Observatory  (N45.868292 E8.769720)  Italy.  Observer L.
   Buzzi. 0.84-m f/3.5 reflector + CCD.
(695) Kitt Peak  (N31.958395 W111.594670)  US/Arizona. Measurer S. Deen.
   2.3-m f/9 reflector + CCD.
(F51) Pan-STARRS 1, Haleakala  (N20.707234 W156.255910)  US/Hawaii.
   Observers J. Bulger, T. Lowe, A. Schultz, M. Willman. Measurers K.
   Chambers, S. Chastel, T. de Boer, L. Denneau, J. Fairlamb, H. Flewelling,
   M. Huber, C.-C. Lin, E. Magnier, Y. Ramanjooloo, R. Wainscoat, R. Weryk.
   1.8-m Ritchey-Chrétien + CCD.

Orbital elements:  P125r65
   Perihelion 2024 Sep 6.71751 +/- 1.9 TT = 17:13:13 (JD 2460560.21751)
Epoch 2025 Jan 15.0 TT = JDT 2460690.5   Earth MOID: 0.0728      AutoNEOCP
M  49.23611841 +/- 1.4              (J2000 ecliptic)
n   0.37791816 +/- 0.00602          Peri.   21.97800 +/- 0.38
a   1.89468728 +/- 0.0201           Node     0.25782 +/- 0.55
e   0.5218942 +/- 0.00509           Incl.   33.56777 +/- 0.48
P   2.608/952.569d         H 19.27  G  0.15   U  9.3
q 0.90586080 +/- 0.000346    Q 2.88351375 +/- 0.0402
From 10 observations 2025 Jan. 8-15; mean residual 0".10
Residuals in arcseconds: 
250108 F51  .07+  .07+    250113 695  .07-  .06+    250114 695  .13+  .21+    
250108 F51  .01-  .05+    250113 695  .02-  .08-    250115 204  .03+  .08-    
250108 F51  .07-  .13-    250114 695  .19-  .05-    
250113 695  .18+  .12-    250114 695  .08-  .12+    

Ephemerides (geocentric):
Date (UTC) HH   RA             Dec           delta  r     elong  mag " sig PA
---- --------  ------------   ------------  ------ ------ -----  --- --------
2025 01 15 09  12 44 20.959   +41 39 25.86  1.0268 1.7009 115.5 21.8 .326  29
2025 01 15 10  12 44 17.557   +41 39 46.73  1.0268 1.7012 115.6 21.8 .341  29
2025 01 15 11  12 44 14.148   +41 40 07.60  1.0267 1.7015 115.6 21.8 .357  29
2025 01 15 12  12 44 10.731   +41 40 28.48  1.0266 1.7018 115.7 21.8 .372  29
2025 01 15 13  12 44 07.305   +41 40 49.37  1.0265 1.7021 115.7 21.8 .388  28
2025 01 15 14  12 44 03.871   +41 41 10.26  1.0264 1.7024 115.7 21.8 .404  28
2025 01 15 15  12 44 00.430   +41 41 31.16  1.0263 1.7027 115.8 21.8 .420  28
2025 01 15 16  12 43 56.980   +41 41 52.06  1.0262 1.7030 115.8 21.8 .436  28
2025 01 15 17  12 43 53.522   +41 42 12.97  1.0261 1.7033 115.9 21.8 .453  28
2025 01 15 18  12 43 50.056   +41 42 33.88  1.0260 1.7036 115.9 21.8 .469  28
2025 01 15 19  12 43 46.582   +41 42 54.80  1.0260 1.7039 115.9 21.8 .486  27
2025 01 15 20  12 43 43.100   +41 43 15.72  1.0259 1.7042 116.0 21.8 .503  27
2025 01 15 21  12 43 39.610   +41 43 36.65  1.0258 1.7045 116.0 21.8 .520  27
2025 01 15 22  12 43 36.112   +41 43 57.58  1.0257 1.7048 116.1 21.8 .537  27
2025 01 15 23  12 43 32.606   +41 44 18.52  1.0256 1.7051 116.1 21.8 .554  27
2025 01 16 00  12 43 29.091   +41 44 39.46  1.0255 1.7054 116.1 21.8 .572  27
2025 01 16 01  12 43 25.569   +41 45 00.41  1.0254 1.7056 116.2 21.8 .590  26
2025 01 16 02  12 43 22.038   +41 45 21.36  1.0253 1.7059 116.2 21.8 .608  26
2025 01 16 03  12 43 18.499   +41 45 42.32  1.0252 1.7062 116.3 21.8 .626  26
2025 01 16 04  12 43 14.953   +41 46 03.28  1.0252 1.7065 116.3 21.8 .644  26
2025 01 16 05  12 43 11.398   +41 46 24.24  1.0251 1.7068 116.3 21.8 .662  26
2025 01 16 06  12 43 07.835   +41 46 45.21  1.0250 1.7071 116.4 21.8 .681  26
2025 01 16 07  12 43 04.264   +41 47 06.18  1.0249 1.7074 116.4 21.8 .699  26
2025 01 16 08  12 43 00.684   +41 47 27.16  1.0248 1.7077 116.5 21.8 .718  25
2025 01 16 09  12 42 57.097   +41 47 48.13  1.0247 1.7080 116.5 21.8 .737  25
2025 01 16 10  12 42 53.501   +41 48 09.12  1.0246 1.7083 116.5 21.8 .756  25
2025 01 16 11  12 42 49.898   +41 48 30.10  1.0246 1.7086 116.6 21.8 .776  25
2025 01 16 12  12 42 46.286   +41 48 51.09  1.0245 1.7089 116.6 21.8 .795  25
2025 01 16 13  12 42 42.666   +41 49 12.09  1.0244 1.7092 116.7 21.8 .815  25
2025 01 16 14  12 42 39.038   +41 49 33.08  1.0243 1.7095 116.7 21.8 .835  25
2025 01 16 15  12 42 35.402   +41 49 54.08  1.0242 1.7098 116.7 21.8 .855  24
2025 01 16 16  12 42 31.758   +41 50 15.09  1.0241 1.7101 116.8 21.8 .875  24
2025 01 16 17  12 42 28.106   +41 50 36.09  1.0240 1.7104 116.8 21.8 .896  24
2025 01 16 18  12 42 24.445   +41 50 57.10  1.0239 1.7107 116.9 21.8 .916  24
2025 01 16 19  12 42 20.776   +41 51 18.11  1.0239 1.7110 116.9 21.8 .937  24
2025 01 16 20  12 42 17.099   +41 51 39.12  1.0238 1.7113 116.9 21.8 .958  24
2025 01 16 21  12 42 13.414   +41 52 00.14  1.0237 1.7116 117.0 21.8 .979  24
2025 01 16 22  12 42 09.721   +41 52 21.16  1.0236 1.7119 117.0 21.8 1.00  23
2025 01 16 23  12 42 06.020   +41 52 42.18  1.0235 1.7122 117.1 21.8 1.02  23
2025 01 17 00  12 42 02.311   +41 53 03.20  1.0234 1.7125 117.1 21.8 1.04  23
2025 01 17 01  12 41 58.593   +41 53 24.23  1.0234 1.7128 117.1 21.8 1.06  23
2025 01 17 02  12 41 54.867   +41 53 45.26  1.0233 1.7130 117.2 21.8 1.09  23
2025 01 17 03  12 41 51.133   +41 54 06.29  1.0232 1.7133 117.2 21.8 1.11  23
2025 01 17 04  12 41 47.391   +41 54 27.32  1.0231 1.7136 117.3 21.8 1.13  23
2025 01 17 05  12 41 43.641   +41 54 48.35  1.0230 1.7139 117.3 21.8 1.15  22
2025 01 17 06  12 41 39.883   +41 55 09.39  1.0229 1.7142 117.3 21.8 1.18  22
2025 01 17 07  12 41 36.116   +41 55 30.42  1.0228 1.7145 117.4 21.8 1.20  22
2025 01 17 08  12 41 32.341   +41 55 51.46  1.0228 1.7148 117.4 21.8 1.22  22